FLOCK 4Q 6

导读 | 星芒AI

FLOCK 4Q 6 是 Planet Labs 公司发射的 Dove 系列小型地球观测卫星之一,属于 Flock 4Q 卫星群。该卫星主要用于高分辨率光学成像,支持全球范围的每日重访能力,广泛应用于环境监测、农业分析、灾害评估等领域。Flock 4Q 6 于 2017 年发射,运行在低地球轨道,具备快速数据采集和传输能力,为用户提供及时、准确的地表图像数据。

基本信息
目录编号:
58315
目录名称:
FLOCK 4Q 6
国际标识:
2023-174BM
轨道中心:
EARTH
卫星名称:
FLOCK 4Q 6
卫星全名:
--
卫星状态:
在轨 (已飞行711 天)
发射日期:
2023-11-11 UTC
国别 :
美国 (US)
星等 :
--
轨道信息
数据来源 国际轨道数据
星历时间: 2025-10-22T12:31:40+0800
10小时前
查看轨道信息
半长轴: 6739.232km
偏心率: 0.0009003
轨道倾角: 97.395°
近地点辐角 272.058°
升交点赤经 19.308°
平近点角 87.965°
近地点: 355.029km
远地点: 367.165km
周期: 91.765分钟
每日圈数: 15.692322
详细信息
使用方式:
暂无
2D轨道图
3D轨道图
轨道高度分析图
轨道倾角分析图
轨道综合分析图
查看轨道综合分析图